Theta_e
333 335 338 339 341 342 344 345 346 348 349 350 349 349 349 349 349 349 348 349 348 346 345 344 343 343 344 345 343 346 347 348 351 351 353 356 358 359 359 359 357 358 358 356 356 360 354 352 353 353 354 353 350 349 347 348 351 351 353 355 356 349 346 349 349 347 339 339 339 339 341 344 352 355 350 348 349 346 345 347 349 350 349 349 351
333 333 335 338 339 341 344 344 347 344 346 348 347 347 347 348 348 347 347 348 348 347 346 345 344 343 343 344 346 346 349 348 346 350 353 358 358 359 360 359 357 357 359 357 357 354 352 351 351 352 352 352 353 353 351 361 354 353 354 349 349 349 344 350 351 344 338 334 334 333 335 338 343 349 347 347 345 345 346 345 346 347 347 347 348
330 332 334 336 338 341 343 343 344 345 346 347 347 346 346 347 347 346 347 348 347 347 346 344 345 347 345 345 346 346 350 351 349 354 357 357 359 360 360 358 356 356 359 360 355 353 352 351 352 351 352 356 349 347 348 350 353 354 353 349 347 348 352 354 350 343 338 340 338 334 327 329 337 334 339 344 345 344 343 344 345 346 347 346 346
327 329 332 335 338 340 341 341 343 344 345 345 345 345 346 347 346 346 346 347 347 348 349 346 347 347 348 348 349 349 347 353 353 355 356 357 357 359 359 358 357 357 359 359 356 354 352 352 352 351 352 354 349 349 349 349 350 352 352 355 349 343 344 345 355 346 342 339 331 330 329 329 324 326 330 335 340 343 343 342 344 343 343 344 346
327 328 332 334 337 338 338 340 342 342 344 344 345 345 347 346 346 346 346 347 347 351 349 347 350 346 348 350 353 351 353 350 349 351 354 356 357 356 358 358 358 358 359 358 358 354 352 352 352 350 351 353 354 350 349 351 352 353 351 352 349 345 343 341 343 348 344 343 340 332 328 325 324 327 330 329 335 339 340 342 343 343 341 341 344
327 328 331 334 336 336 337 339 341 342 343 344 345 346 346 346 346 346 346 347 348 350 348 349 350 345 345 345 344 343 343 345 346 348 351 354 355 357 359 359 359 358 358 358 358 357 353 353 352 352 352 355 355 353 352 353 352 354 353 351 349 348 346 345 340 346 348 352 346 338 336 332 329 331 329 323 329 342 340 340 338 340 340 341 341
326 329 332 334 335 334 335 338 340 341 342 345 345 345 346 346 347 347 346 346 348 351 349 352 348 347 346 346 346 345 345 347 348 351 353 354 356 356 357 359 358 359 360 358 358 357 354 353 353 353 354 353 359 355 354 353 353 354 356 352 351 354 350 345 342 340 340 344 352 349 348 347 337 335 328 328 321 325 330 334 331 334 336 337 339
325 328 332 334 334 334 335 338 340 341 343 344 344 345 345 347 346 347 347 348 347 349 349 350 348 347 347 347 348 345 347 348 350 351 354 357 354 355 357 357 357 358 359 357 358 358 356 354 353 354 354 354 358 357 355 355 355 355 357 355 353 355 350 344 342 343 341 341 350 348 348 349 340 340 333 332 328 324 327 333 332 331 334 335 338
325 328 331 332 333 334 336 338 340 341 342 343 344 344 346 347 348 347 347 347 346 348 349 349 350 348 348 348 347 348 348 350 353 356 354 356 353 353 354 355 355 356 358 358 357 358 361 356 354 353 354 355 360 359 356 356 355 353 351 351 349 351 352 349 346 343 342 344 341 339 338 340 340 339 340 338 332 325 325 328 328 332 331 330 333
326 329 331 332 334 335 337 339 340 340 342 345 344 345 346 347 347 347 346 347 346 346 349 347 349 350 346 347 347 346 350 348 350 351 351 352 352 351 352 353 354 354 356 357 357 359 360 359 356 356 356 357 360 358 356 355 354 352 352 351 350 348 353 351 352 349 348 347 343 342 336 337 336 334 334 335 332 330 328 329 330 330 325 326 333
323 328 331 332 335 336 337 338 339 339 340 343 343 344 346 347 346 346 346 347 347 345 348 347 348 349 347 347 347 346 347 348 348 348 348 348 350 351 351 352 353 354 355 357 358 359 359 360 358 357 357 361 361 358 357 357 356 355 355 354 353 350 348 350 353 352 348 346 344 341 339 340 338 336 336 336 333 329 327 325 327 334 325 325 327
325 326 329 331 333 335 337 337 338 338 339 341 343 344 346 346 346 345 345 346 345 346 348 347 349 349 348 348 347 347 348 348 348 348 348 349 350 350 350 350 352 353 354 355 356 359 359 358 360 359 359 355 356 358 357 356 355 356 355 352 351 352 350 352 348 347 348 347 346 344 342 344 342 339 340 338 335 331 329 327 328 333 332 329 331
336 325 327 330 332 333 335 336 337 337 338 341 343 343 346 346 345 345 344 346 345 346 347 347 348 349 350 349 347 348 348 349 348 348 349 349 350 350 349 349 349 351 352 354 355 358 359 357 357 358 357 358 356 355 355 355 354 355 353 353 352 351 350 350 349 349 349 347 348 349 347 345 344 342 341 340 336 334 331 328 330 336 334 334 336
339 335 326 329 332 334 335 336 337 338 338 340 343 343 345 346 345 344 344 347 345 346 347 347 348 349 350 351 349 351 348 349 348 348 349 350 350 350 350 350 350 352 353 353 356 358 359 359 359 359 358 357 357 356 355 356 356 355 353 352 352 352 351 352 351 352 349 350 349 347 347 348 345 346 345 344 338 336 332 331 331 329 336 336 336
340 336 331 328 331 333 334 336 337 338 339 340 343 343 344 345 345 345 344 346 345 346 347 347 348 348 349 351 350 352 348 349 349 349 349 350 350 350 350 350 350 352 353 355 358 358 359 358 358 358 358 356 356 357 361 359 361 358 357 353 352 352 350 352 351 352 353 350 348 347 350 349 347 346 347 345 341 339 338 335 333 330 327 327 334
344 341 340 339 336 333 334 335 337 338 339 340 342 344 343 344 345 345 345 347 345 347 347 348 347 349 348 349 350 352 354 351 351 353 351 351 352 351 350 350 351 352 353 355 356 358 358 358 358 358 358 357 357 357 358 360 359 356 354 354 353 360 353 352 351 352 352 351 350 350 348 348 347 346 348 346 348 348 345 339 335 329 328 328 329
341 341 338 338 339 339 336 334 335 337 339 340 342 344 344 344 346 345 345 347 346 348 348 348 348 348 349 349 349 351 352 350 350 350 352 353 353 352 351 351 352 353 354 356 355 356 357 357 357 357 357 357 357 358 360 359 358 358 357 354 353 353 355 352 352 351 350 353 352 353 351 349 349 349 346 346 346 350 346 342 340 337 330 330 329
342 344 343 339 340 342 342 339 336 336 338 339 342 345 345 345 346 345 345 347 346 347 348 349 349 349 349 349 349 351 352 352 350 351 352 353 353 353 352 352 353 355 355 357 356 355 355 361 356 356 357 357 358 359 360 360 358 356 357 356 356 354 354 355 355 353 352 351 355 353 352 351 351 346 345 347 348 347 346 346 345 341 338 334 331
341 342 341 340 340 341 342 343 345 344 343 339 342 345 345 345 346 346 345 348 348 348 349 350 351 350 351 351 350 350 352 352 351 352 352 352 354 353 353 353 354 355 356 355 354 354 354 355 356 356 356 357 358 358 359 358 357 356 355 355 354 354 353 352 353 354 354 354 351 352 350 351 351 348 350 351 350 351 348 347 349 345 344 338 336
341 341 342 343 343 345 345 343 345 347 346 346 343 345 345 345 348 347 347 348 349 348 350 349 351 351 351 351 351 350 352 352 351 351 352 352 353 354 354 353 353 356 355 355 355 354 354 354 356 356 357 357 357 358 359 357 357 357 356 356 354 353 353 352 354 355 359 356 353 351 351 351 351 350 348 349 348 349 352 348 346 344 344 342 340
341 343 344 345 345 348 347 347 349 351 351 350 348 345 345 346 347 349 347 348 350 350 349 349 350 351 352 351 351 350 351 352 351 351 352 352 352 354 354 355 354 354 355 353 353 354 354 354 355 355 356 357 356 357 357 357 356 356 355 354 353 353 352 353 354 355 356 356 354 352 352 353 351 350 348 348 349 348 348 348 347 343 343 343 341
341 343 344 345 346 347 348 348 348 349 349 348 349 349 348 347 348 349 349 349 350 351 351 351 351 351 351 351 352 352 351 352 351 350 351 351 351 352 353 353 353 354 354 353 351 353 354 355 355 354 354 356 357 356 357 356 355 354 355 358 356 354 353 353 351 352 354 356 353 351 352 353 352 351 350 348 348 349 348 346 346 347 344 344 345
340 341 342 344 345 346 347 347 346 348 347 347 345 346 348 349 350 351 350 349 352 353 353 352 352 351 351 352 352 352 351 351 351 350 350 350 351 351 352 351 351 352 353 353 351 351 353 354 355 354 353 354 355 356 356 356 355 355 355 356 357 355 354 354 353 353 354 353 351 351 352 352 354 351 351 351 350 348 348 346 345 345 344 344 344
338 342 342 343 343 344 344 343 343 344 345 346 345 345 347 349 349 349 351 353 353 353 355 354 353 351 350 350 351 352 352 351 351 351 350 350 350 349 351 351 351 351 351 351 351 350 350 352 353 354 353 353 353 354 354 355 355 355 354 354 354 354 354 354 354 354 354 354 353 351 352 352 351 350 350 350 349 348 347 346 345 345 344 346 345
334 336 339 340 339 339 339 339 341 342 343 344 345 346 347 347 349 350 351 352 352 352 350 348 348 347 347 347 348 350 351 351 351 351 351 351 350 349 348 349 350 349 350 350 349 349 348 349 351 352 352 351 351 352 352 352 353 354 354 355 354 353 353 353 353 354 359 354 353 353 353 351 348 349 349 348 350 348 350 347 347 346 346 346 347
328 329 332 332 335 339 340 340 341 342 343 344 345 345 344 346 347 350 350 351 351 352 349 347 346 347 347 347 347 348 350 351 351 352 352 352 351 350 348 348 349 348 348 349 348 348 349 348 349 350 351 351 350 350 351 351 351 352 352 353 353 353 353 352 351 352 353 354 354 353 353 352 350 349 349 349 347 348 349 349 348 348 347 346 345
327 328 330 332 332 334 338 340 340 342 342 343 344 344 345 348 348 348 347 349 349 349 350 348 347 346 345 346 346 347 347 349 350 351 352 352 351 350 349 348 349 349 348 347 348 347 349 349 349 349 349 350 350 349 349 349 349 349 350 351 351 351 351 351 351 350 351 351 353 353 353 352 351 350 349 349 348 347 349 348 349 348 348 345 345
326 327 328 328 329 331 333 338 340 342 343 344 346 346 347 347 347 349 350 351 350 349 349 348 348 347 344 345 346 347 349 349 348 348 350 350 351 349 348 348 348 347 347 347 347 347 347 348 349 349 350 350 349 349 348 348 349 349 349 349 350 350 350 350 350 350 350 350 350 351 351 352 351 351 350 349 348 348 347 347 348 348 347 345 345
324 324 326 327 327 329 330 332 333 335 337 341 344 345 345 344 345 345 346 346 348 350 349 347 346 346 346 346 347 347 348 349 349 349 348 348 351 349 349 346 346 346 348 347 347 346 346 346 347 348 349 350 349 349 349 348 348 348 348 347 348 349 349 349 349 349 349 349 349 350 350 350 353 360 358 357 355 356 349 346 347 346 346 345 345
323 323 324 325 326 327 328 330 331 332 334 336 338 340 341 342 342 343 344 345 349 349 349 347 346 345 346 347 347 348 348 347 347 348 348 348 348 349 352 349 347 345 345 346 345 345 345 345 344 344 346 348 349 349 352 345 347 350 347 348 347 348 348 349 348 348 348 348 348 348 351 359 361 360 355 353 349 355 360 354 348 345 345 345 344
323 324 324 325 325 326 327 328 329 330 331 333 335 336 337 338 339 340 341 343 345 345 347 347 347 347 348 348 348 348 347 346 347 347 347 348 348 348 348 350 350 348 346 346 346 343 343 343 344 344 343 344 346 348 344 336 335 339 349 347 346 345 345 346 347 347 346 347 347 347 346 352 360 365 359 352 347 345 350 356 359 361 360 347 343
322 322 322 323 323 324 325 327 328 330 332 332 333 333 334 334 337 338 340 341 341 341 341 341 343 345 345 347 350 350 350 349 349 350 348 348 350 349 348 347 346 349 348 350 346 344 342 341 342 343 344 344 345 345 335 333 333 333 341 349 347 346 345 344 344 344 345 345 345 345 346 347 347 348 348 350 352 350 344 345 346 350 351 357 358
321 322 321 321 321 322 324 327 329 330 331 332 333 332 332 332 333 336 337 337 337 338 338 338 339 341 343 344 345 346 347 347 347 347 349 348 348 346 346 346 347 346 351 348 346 346 344 343 342 339 341 344 345 340 333 331 331 331 331 340 347 347 345 345 344 344 344 344 344 344 344 345 346 355 356 350 346 346 345 343 342 343 346 345 339
320 320 319 318 318 318 321 324 327 329 331 331 332 330 330 332 332 332 332 332 333 333 333 334 336 338 341 343 343 344 344 345 347 347 347 347 347 345 346 348 349 349 348 348 348 346 345 343 344 343 342 341 342 343 331 328 328 328 328 332 343 346 346 346 345 345 345 344 344 343 343 344 344 345 346 346 345 345 344 343 343 342 342 347 347
316 316 317 316 315 315 317 320 323 328 328 329 328 328 327 328 328 328 329 328 328 329 329 330 332 334 336 339 343 342 342 344 345 346 346 346 346 344 344 346 348 348 346 346 346 345 346 348 348 348 346 346 347 339 331 325 323 323 325 329 339 343 344 345 346 346 345 345 345 345 344 343 343 343 343 345 343 343 342 342 340 339 339 340 340
314 314 315 315 315 315 316 318 325 324 326 327 326 328 327 326 327 326 326 326 326 326 327 329 329 332 333 334 337 340 338 340 343 344 344 345 345 345 345 347 347 347 348 348 348 347 346 347 347 347 347 346 348 337 333 328 322 320 324 332 336 338 340 343 344 345 345 346 346 345 344 343 343 343 347 342 348 346 341 340 339 339 339 339 339
312 314 314 315 316 317 320 321 320 322 324 324 325 326 327 327 326 326 325 325 325 325 325 327 328 329 331 331 333 334 334 334 336 339 341 342 343 344 345 347 345 345 346 348 349 349 350 349 349 348 346 346 348 342 332 327 324 320 323 332 334 337 338 339 341 343 344 345 345 345 344 344 343 342 342 331 331 342 341 340 340 339 339 338 338
313 314 314 314 315 317 319 318 318 318 319 322 323 324 323 322 321 321 321 322 324 324 325 326 325 328 328 328 329 330 330 331 330 331 334 338 342 345 344 347 344 342 343 346 349 350 349 350 350 349 350 349 349 347 334 325 323 320 327 334 335 335 336 338 339 341 342 343 345 355 356 346 343 343 336 329 328 335 336 336 336 336 336 336 337
314 314 314 314 315 317 317 317 316 316 317 320 321 321 320 319 319 318 318 318 319 322 323 323 324 325 327 327 327 329 328 328 327 328 331 333 335 340 345 346 344 343 343 346 351 350 351 352 353 353 356 354 352 349 334 326 318 317 325 334 335 334 334 334 336 337 339 340 341 348 353 352 350 345 331 328 327 334 336 336 336 335 335 335 337
313 314 314 316 317 315 314 314 314 315 318 319 319 320 322 318 317 317 316 317 318 319 321 321 322 324 326 328 326 328 328 327 326 327 329 332 336 336 337 342 343 343 345 346 348 348 348 348 350 350 351 352 353 352 346 323 319 317 317 332 337 337 337 339 339 339 339 339 339 340 344 334 326 325 323 322 321 320 333 338 338 337 336 336 340
313 315 319 313 313 314 313 313 313 315 317 319 319 316 316 317 315 314 316 316 317 319 320 321 324 325 325 326 325 324 326 325 326 327 329 331 330 332 336 339 341 343 343 342 343 344 343 342 342 343 343 346 349 349 347 324 321 320 318 323 337 339 339 339 339 340 341 341 342 343 344 338 326 322 318 315 314 315 321 333 337 339 340 342 344
317 318 315 312 312 312 312 312 313 315 317 317 317 317 315 313 312 313 314 316 317 317 318 320 322 321 323 324 325 327 326 326 327 328 325 326 328 331 337 342 343 341 338 338 339 341 340 338 338 340 342 343 346 345 344 332 321 315 316 316 334 341 340 341 342 342 343 343 343 344 345 340 320 312 310 308 308 311 314 328 331 322 322 322 332
310 312 315 313 310 310 311 311 312 313 314 314 316 316 315 312 310 312 315 316 318 317 318 319 321 321 322 323 324 325 324 325 327 327 323 325 325 327 329 334 335 334 331 331 334 336 336 334 334 336 338 340 341 343 336 338 326 315 311 316 318 327 322 334 337 339 342 344 346 347 349 334 316 311 309 309 309 310 317 326 317 315 317 320 329
310 312 312 315 310 310 310 310 311 312 312 312 313 314 315 313 309 312 315 317 315 316 317 319 321 319 320 321 323 324 322 321 324 325 326 324 324 325 326 328 328 329 327 327 329 332 331 330 330 331 333 336 337 337 337 333 332 321 315 312 314 315 319 328 332 334 338 341 341 342 337 317 309 306 307 309 311 313 320 314 313 314 317 322 331
310 311 314 312 310 309 309 310 310 311 311 311 310 312 313 312 311 315 317 314 315 317 318 318 317 317 318 319 320 320 321 320 321 323 324 325 323 323 323 324 325 324 324 324 325 328 328 328 328 327 328 330 333 333 332 333 331 327 322 317 317 316 316 318 328 334 337 339 329 317 311 309 311 310 310 312 318 323 319 314 313 315 323 330 332
310 310 311 310 309 309 309 309 309 310 311 312 309 310 311 310 312 314 314 313 316 317 316 317 316 317 316 317 318 319 322 323 323 322 325 324 322 323 324 323 321 321 322 323 325 326 326 325 324 324 325 326 329 329 328 330 335 334 328 321 318 318 325 324 329 330 325 319 315 313 313 313 315 320 333 338 338 338 327 323 322 325 331 333 334
308 311 312 308 309 308 310 310 309 308 309 311 309 311 311 311 313 313 313 313 314 317 317 316 313 314 315 316 317 320 321 321 321 321 321 324 323 320 320 322 320 318 320 323 323 324 323 321 320 319 320 322 322 324 325 326 327 325 324 324 324 325 327 328 330 331 327 327 327 329 329 324 323 325 325 327 328 332 334 335 335 335 334 335 336
308 309 308 306 305 306 308 309 308 307 308 310 311 311 312 312 314 314 312 311 315 316 315 312 313 313 315 317 317 324 323 318 319 321 319 318 319 321 319 318 317 318 319 319 319 320 320 318 316 317 317 318 319 320 322 322 321 319 317 317 320 324 324 322 322 321 318 321 326 327 327 335 338 340 340 341 341 341 340 338 338 338 338 339 340
306 307 309 305 308 309 308 309 307 307 308 310 311 312 313 313 314 314 313 313 316 317 316 313 313 312 313 320 320 317 317 318 318 319 319 317 318 319 319 316 316 320 321 318 316 316 318 315 315 315 316 316 318 318 321 315 314 306 306 308 312 314 313 314 316 308 313 321 325 330 334 336 337 338 338 339 340 341 341 342 342 341 341 340 339
306 307 307 310 310 308 308 309 306 306 309 312 311 312 312 314 313 313 314 315 316 316 314 313 314 314 315 316 318 317 316 318 317 317 319 320 329 313 314 316 317 322 314 311 311 315 317 315 313 315 317 316 316 319 311 301 298 297 296 296 297 296 296 304 306 304 310 318 327 330 332 333 335 336 337 337 339 340 341 341 342 337 342 343 342
304 304 305 307 308 310 310 309 306 310 311 312 312 311 311 312 312 312 312 312 312 315 313 312 315 314 318 321 318 317 317 316 317 315 317 317 317 318 308 307 312 316 311 304 302 303 304 307 315 313 317 314 311 305 299 297 297 296 296 296 296 295 296 296 297 309 323 325 328 329 331 333 334 336 336 337 339 340 340 341 342 343 344 343 340
Wind_Speed
11 13 13 12 13 11 10 9 9 9 8 9 9 8 8 8 7 7 6 7 7 7 6 6 5 4 2 4 4 4 4 4 4 4 4 5 4 4 4 4 3 3 3 4 4 3 3 2 3 2 2 2 2 1 0 0 0 0 0 1 2 4 2 1 1 2 2 2 2 3 4 2 3 1 4 4 5 6 5 5 5 4 5 5 5
10 10 11 11 10 11 9 8 8 9 7 8 9 9 8 8 8 6 6 7 7 8 7 6 5 5 5 5 3 4 5 5 3 3 3 4 4 4 3 3 3 3 3 3 3 4 4 3 2 2 2 3 2 1 0 1 1 2 1 2 2 1 2 2 3 1 3 1 1 4 3 5 3 3 4 4 4 4 4 5 5 5 6 6 4
11 12 12 12 12 11 10 9 9 11 11 11 8 8 8 8 7 6 6 7 7 7 7 6 3 3 3 4 4 3 1 1 2 1 2 3 4 4 4 3 3 3 3 3 4 3 4 4 3 2 2 1 2 1 1 1 1 2 2 1 4 2 1 3 1 1 0 1 1 1 2 4 4 4 3 4 5 4 3 4 4 5 7 5 3
13 13 13 12 12 11 10 10 10 8 8 7 8 9 7 6 6 7 7 6 7 7 7 6 6 3 1 3 2 2 2 2 2 2 1 2 3 3 3 4 3 3 3 3 3 3 3 3 3 2 2 2 3 2 1 0 1 2 2 1 1 3 3 3 1 2 2 1 2 0 1 1 4 3 3 6 2 4 4 5 4 5 5 4 2
14 13 13 13 12 12 12 11 9 9 9 9 9 9 7 8 7 8 7 7 7 7 7 5 4 2 2 3 2 2 4 3 2 1 3 3 2 3 4 3 3 3 3 3 3 3 3 3 3 2 2 2 2 2 1 1 1 0 1 1 1 0 3 2 2 1 1 2 2 1 2 2 2 4 3 5 3 2 3 4 4 5 5 4 4
15 15 15 14 13 11 10 11 11 10 10 9 10 10 7 7 6 7 6 6 7 7 6 6 6 6 4 4 4 2 2 4 5 6 5 5 6 3 3 4 4 3 3 3 3 3 3 2 2 2 2 2 2 1 1 0 1 1 1 2 1 2 2 1 3 2 1 2 2 2 3 2 3 2 1 3 6 2 4 3 3 4 3 4 4
12 13 13 13 13 12 11 12 12 12 11 9 8 8 8 8 7 7 7 6 6 6 6 5 6 6 7 6 6 6 6 4 4 4 5 4 4 5 5 4 4 4 3 3 3 3 2 2 2 2 1 1 1 1 0 1 2 1 0 1 2 1 1 1 2 3 3 0 0 2 2 2 2 0 2 0 4 4 1 2 2 2 3 4 5
12 13 14 15 14 14 14 13 12 13 11 9 8 7 9 8 8 7 6 6 6 6 6 6 7 6 6 5 5 6 6 6 6 5 3 4 5 4 4 4 4 4 4 3 3 3 3 2 2 1 1 1 1 2 2 2 1 2 1 2 1 1 2 2 1 1 1 2 1 2 2 1 0 1 1 0 1 1 5 5 1 3 1 3 4
13 13 14 15 15 14 13 13 11 10 10 10 10 9 8 8 8 6 6 6 5 5 6 5 6 7 7 6 5 5 5 5 4 4 5 4 5 3 4 4 3 3 3 4 4 4 3 3 3 2 2 2 2 2 2 2 3 2 2 0 1 1 2 2 1 0 0 2 3 3 3 1 1 1 1 1 1 2 2 1 4 4 1 3 3
11 15 15 15 15 14 14 12 11 12 11 10 9 8 8 7 7 7 6 5 5 4 5 4 4 6 6 6 7 5 3 3 4 5 4 4 5 4 4 4 4 3 3 3 4 4 4 4 4 4 3 3 2 3 2 3 2 3 2 2 1 2 2 2 1 1 1 0 1 1 3 3 4 2 2 5 1 1 1 4 2 3 3 4 3
6 9 12 14 14 14 12 13 12 10 8 9 9 9 8 9 8 8 7 5 5 5 4 4 3 5 6 6 7 7 5 5 4 3 3 3 5 4 4 5 4 4 4 3 4 4 4 4 4 4 4 3 3 3 3 3 3 3 2 1 2 2 1 0 1 1 1 2 2 2 1 2 1 0 3 2 0 2 2 3 3 2 3 4 3
4 9 10 11 10 10 11 11 11 10 9 9 8 8 9 9 9 9 6 6 5 5 5 4 4 4 4 5 6 6 7 6 7 6 5 6 5 5 4 4 4 4 3 4 4 4 3 3 3 3 4 3 4 3 3 3 2 2 1 1 2 1 1 0 1 3 3 3 2 2 0 1 1 1 2 2 2 3 1 3 2 3 2 4 4
4 4 8 9 12 12 11 11 10 10 11 12 11 10 9 9 10 10 9 7 7 6 6 5 4 4 4 5 5 5 6 7 6 6 5 6 5 5 5 5 4 4 5 5 5 5 4 4 4 4 4 4 3 3 3 3 2 2 2 1 1 2 1 1 0 1 1 2 2 1 0 1 3 2 1 2 1 2 3 1 0 1 0 4 2
5 6 8 11 12 13 14 13 13 12 12 12 11 10 9 9 10 11 11 8 6 6 6 6 5 5 4 5 5 5 5 6 6 6 6 6 6 6 6 6 6 6 6 6 6 5 4 5 5 5 4 4 3 3 3 3 2 2 3 3 3 3 1 1 1 0 0 0 0 2 3 2 4 1 1 1 1 0 1 0 2 1 0 2 2
5 6 6 9 11 13 14 13 13 13 13 12 11 11 10 10 11 11 9 8 7 7 6 6 6 5 4 4 5 4 5 5 6 6 6 6 5 6 6 5 6 6 6 6 5 5 5 5 5 5 4 4 3 3 3 3 3 2 3 3 3 3 2 1 1 1 2 2 2 1 2 3 4 3 1 3 1 0 1 1 1 4 5 3 3
1 6 5 2 4 7 8 10 12 12 13 12 12 11 11 11 12 12 12 10 9 8 7 7 6 5 5 5 4 4 4 4 4 4 5 6 6 7 6 6 6 5 5 4 5 6 6 6 5 6 5 5 4 4 4 3 3 3 2 3 4 2 3 2 2 1 2 2 2 0 1 3 3 4 2 1 0 1 1 2 4 4 3 5 4
3 4 5 6 6 4 6 8 7 9 11 12 13 13 14 12 11 11 10 9 9 10 9 7 7 6 6 5 4 4 4 5 5 5 6 5 6 6 6 6 5 4 5 4 5 5 5 6 6 6 5 5 5 4 4 3 3 3 3 2 3 2 2 3 2 2 3 1 1 1 1 2 3 3 2 2 1 0 1 2 0 1 4 2 2
3 2 2 5 7 7 6 7 9 10 11 11 12 12 12 12 13 13 11 11 11 11 10 9 8 8 7 6 6 5 4 5 5 6 5 5 5 5 4 5 6 6 5 4 4 5 5 5 5 5 5 4 5 4 4 4 3 4 3 3 3 2 2 0 2 2 3 2 1 1 1 2 2 3 3 2 2 0 0 1 1 1 3 0 3
6 7 6 5 6 7 6 6 5 6 7 9 10 10 8 6 8 11 13 14 14 11 10 9 9 8 7 8 7 5 4 4 4 4 4 5 6 5 5 6 5 4 5 4 4 5 5 5 5 5 4 5 4 4 4 4 3 3 3 4 3 2 2 2 2 1 2 1 3 3 2 3 2 3 3 2 2 1 1 1 1 1 1 3 4
6 5 5 5 4 5 6 7 6 6 6 7 9 8 9 8 8 8 6 5 4 6 8 9 9 8 8 7 6 6 5 5 4 5 6 6 6 6 6 5 6 4 5 4 4 5 5 5 5 5 5 4 4 4 4 4 4 4 3 3 3 2 3 3 3 2 2 2 1 3 3 3 2 1 3 3 2 1 0 1 1 1 0 1 4
6 5 5 6 6 5 4 4 4 4 4 3 5 10 8 6 7 7 9 9 9 8 6 6 7 8 8 9 9 8 8 6 5 5 6 6 5 5 5 6 4 5 4 4 5 5 5 6 5 5 5 5 5 5 4 4 4 4 4 3 3 3 3 3 3 4 2 2 3 3 3 3 1 2 3 3 3 1 0 1 1 1 1 1 1
7 6 6 5 5 5 6 4 3 4 6 6 5 4 5 5 2 4 7 8 9 9 9 9 8 8 9 9 9 7 7 6 6 5 5 6 5 5 5 3 5 5 5 6 6 5 5 6 6 6 6 6 5 5 5 4 5 4 4 3 4 3 3 4 3 4 4 3 3 3 4 4 2 3 3 3 3 1 1 2 2 1 1 2 3
8 7 6 6 6 6 6 6 4 5 5 7 8 8 8 8 5 2 1 4 4 7 7 7 6 6 7 7 7 7 6 7 7 6 6 6 6 5 4 5 5 5 4 5 6 6 6 6 6 6 6 6 6 6 5 5 5 5 6 5 4 4 5 4 4 5 5 3 3 4 5 4 2 3 3 3 2 3 1 1 3 2 3 3 3
7 7 6 6 7 7 8 8 7 5 5 5 6 6 7 8 9 9 8 6 4 2 2 3 4 3 3 3 4 4 5 6 7 7 7 6 6 5 5 6 6 5 6 5 5 6 5 6 7 6 6 6 6 6 5 5 6 6 6 6 5 5 5 5 5 5 5 4 5 4 5 4 3 3 4 3 3 3 3 3 3 3 3 4 3
7 7 7 8 9 10 9 8 6 6 4 4 3 3 7 8 6 3 4 5 4 4 5 5 5 5 5 5 3 3 6 8 8 7 8 7 6 6 5 6 6 6 6 5 5 4 5 5 7 7 7 6 7 6 6 6 5 5 6 6 6 6 6 6 6 6 6 5 5 5 6 4 3 4 4 3 4 4 4 3 4 4 4 4 3
7 7 9 9 6 5 8 6 3 2 3 4 5 7 8 6 5 5 5 3 4 5 7 7 7 8 7 7 7 8 9 9 9 8 8 7 7 6 6 5 6 8 7 6 7 6 6 7 7 7 7 7 7 7 7 7 7 6 6 6 6 6 6 6 6 6 6 5 5 6 5 5 4 5 6 4 4 4 4 4 4 5 5 4 4
8 7 7 6 8 8 8 7 5 2 2 4 5 7 6 6 6 7 6 5 5 2 4 2 4 5 4 4 6 7 6 4 3 4 5 6 6 7 7 7 7 8 8 8 8 8 7 7 8 7 8 8 7 7 7 7 6 6 7 7 7 6 6 6 6 7 6 6 6 6 6 6 6 6 6 6 5 5 5 5 6 6 4 4 5
8 8 8 8 9 9 10 8 5 5 4 4 4 6 6 6 6 7 6 5 5 5 7 5 4 4 5 6 7 6 3 1 0 1 1 3 5 6 6 7 6 8 9 9 9 9 9 8 8 8 9 8 7 7 7 7 7 7 7 7 7 7 7 6 6 6 6 6 7 7 7 7 7 7 7 6 5 6 5 5 6 4 4 4 5
10 9 8 8 10 9 10 9 6 7 7 6 7 7 7 7 6 6 3 1 2 2 4 5 5 3 2 3 5 4 3 2 1 1 2 3 2 3 6 6 6 7 8 9 9 9 9 8 8 8 8 7 7 8 7 7 8 7 7 7 7 8 8 7 7 7 6 7 6 7 7 7 7 10 11 10 9 8 6 7 7 4 5 5 5
9 9 8 8 9 9 9 9 8 7 6 7 8 9 9 7 6 5 5 5 0 5 5 5 3 1 2 3 3 2 2 1 2 3 2 2 4 3 5 3 5 7 8 8 8 8 8 8 8 8 7 6 7 7 9 13 11 8 8 8 7 8 8 8 8 8 7 7 8 7 8 12 13 13 13 14 14 13 12 9 8 6 6 6 6
9 8 7 8 7 9 9 10 9 8 8 8 7 7 8 9 8 8 8 7 7 6 5 5 3 1 6 7 3 0 1 1 2 3 2 2 4 4 3 7 7 4 5 6 7 8 9 9 9 9 9 8 8 8 14 14 15 15 10 7 8 8 7 8 8 8 9 8 7 7 7 9 10 10 11 14 14 15 14 15 15 13 10 7 6
8 8 8 8 8 9 10 9 8 9 9 8 8 8 9 8 8 8 6 7 8 8 7 6 5 4 5 4 3 3 3 2 2 2 1 1 2 1 1 3 11 11 5 3 5 6 7 7 8 9 9 9 9 12 15 14 15 16 14 10 8 8 8 7 8 8 8 8 7 7 6 6 6 8 7 7 10 13 15 15 15 15 15 15 13
8 9 8 7 8 8 8 9 8 8 8 8 7 8 8 6 7 6 5 7 7 6 7 7 7 7 6 6 6 7 7 6 6 6 5 3 3 2 2 4 8 11 8 3 3 3 3 4 5 6 8 8 8 12 15 15 15 15 16 13 8 8 8 8 8 8 8 8 7 6 7 6 7 11 9 7 7 8 12 14 15 15 14 14 14
8 8 8 7 6 6 7 7 8 8 7 7 7 7 6 6 6 6 8 6 6 7 7 7 7 6 5 5 6 7 7 6 5 6 6 5 5 4 3 3 4 4 6 5 2 2 2 2 3 4 4 4 5 7 11 14 15 16 16 12 9 9 8 8 8 8 8 8 8 8 8 8 7 6 6 7 7 8 8 7 7 7 8 10 13
7 7 7 6 6 6 7 7 7 6 5 6 7 5 5 6 6 8 7 7 7 8 8 7 8 7 7 6 5 6 7 6 6 5 5 4 2 1 1 5 4 3 3 6 7 3 1 1 2 2 3 3 3 3 5 9 12 14 14 11 8 8 8 9 9 8 8 9 8 8 7 9 8 7 7 8 8 8 7 7 6 7 8 8 7
6 8 6 6 6 7 7 6 4 6 6 5 4 3 6 5 5 6 6 7 7 8 8 8 9 8 9 8 8 7 6 6 5 4 3 2 0 0 2 3 4 5 4 4 6 4 2 2 2 2 3 4 4 7 6 7 9 11 11 6 6 7 8 9 9 9 8 8 8 8 8 8 9 9 11 14 12 8 6 7 8 9 9 8 8
7 8 7 5 6 7 6 7 7 7 6 4 3 4 5 6 7 6 6 6 7 8 7 6 6 7 7 7 7 7 6 5 4 3 2 2 2 1 1 1 4 4 4 5 5 4 2 2 2 1 2 3 3 6 8 9 9 7 2 4 4 5 6 8 9 9 7 6 6 6 7 8 8 9 13 14 13 9 6 8 9 9 9 8 9
10 9 8 7 6 7 8 9 9 8 6 4 5 6 7 8 8 8 8 8 8 8 6 6 5 5 5 5 6 6 6 6 6 6 4 4 3 2 2 1 3 4 5 4 4 3 2 1 2 3 2 3 3 5 8 9 9 8 5 4 4 4 6 6 7 7 6 6 7 10 10 7 8 9 13 13 13 7 7 8 9 10 10 10 10
8 10 10 8 7 8 8 9 10 9 6 5 5 7 8 8 7 7 8 9 8 7 7 6 5 3 3 3 4 4 5 5 6 6 5 5 5 4 3 3 4 4 4 4 4 4 3 3 3 3 6 5 3 5 7 7 8 7 3 3 2 2 3 5 5 6 5 6 7 7 11 11 9 11 14 14 14 10 8 9 9 9 10 11 12
9 7 8 7 6 10 11 10 9 6 5 6 7 8 8 7 6 7 9 8 7 6 4 4 5 4 3 3 3 4 4 5 6 6 6 5 4 4 3 2 2 2 3 4 5 5 6 6 6 6 6 7 5 5 7 9 6 5 2 2 2 2 4 5 4 4 5 4 5 5 6 9 13 14 14 15 14 12 9 9 7 8 10 13 10
10 9 8 9 9 9 8 7 5 5 6 6 6 8 7 5 5 8 7 5 4 4 5 5 5 6 6 6 5 4 4 5 4 5 5 5 6 6 5 3 3 3 4 5 6 5 5 5 6 6 6 6 7 7 7 11 10 8 5 1 3 3 4 5 5 5 5 6 6 6 6 7 12 13 13 13 13 12 9 8 8 9 10 10 7
8 9 9 9 9 9 8 7 6 6 6 5 6 6 4 4 5 6 4 3 3 4 4 5 5 5 6 6 5 5 3 3 4 4 5 6 6 6 6 6 5 6 6 6 5 5 5 5 5 6 6 5 7 11 8 11 13 11 9 2 3 5 7 7 6 5 5 5 5 5 6 5 10 12 11 9 9 8 7 5 9 12 13 13 9
9 8 7 9 8 8 7 5 4 5 5 5 6 5 4 4 5 3 3 3 3 4 4 4 4 5 5 5 5 5 4 3 3 3 3 4 5 6 7 7 7 7 7 7 7 6 6 6 5 5 5 5 5 6 8 7 9 11 10 10 6 4 7 4 4 6 6 6 5 5 3 8 12 13 12 12 10 9 6 6 11 12 13 12 8
7 8 8 9 8 6 6 5 5 5 5 5 5 4 4 4 5 4 3 3 4 4 4 4 4 4 4 5 5 5 4 3 2 2 3 4 5 4 5 6 5 6 5 6 6 6 6 7 7 6 6 6 6 5 6 7 6 8 6 8 9 8 6 3 2 3 5 5 5 5 5 10 11 11 12 12 12 10 9 13 13 12 11 8 5
9 8 7 7 8 7 6 5 4 5 4 4 4 5 4 5 5 5 5 5 4 4 4 4 5 4 4 4 5 5 5 4 3 2 3 3 3 4 6 5 5 6 6 6 5 5 6 6 6 7 7 6 6 6 6 7 9 10 8 8 9 10 8 5 4 3 3 4 6 10 11 11 10 10 12 10 7 8 10 11 12 11 8 4 5
8 7 7 7 7 6 6 6 5 4 4 3 3 3 4 3 3 4 5 4 4 4 4 4 4 4 5 4 4 5 5 5 4 1 2 2 2 3 3 3 5 5 4 5 5 5 6 6 6 6 6 6 6 6 6 6 7 10 9 10 9 7 7 7 5 6 8 10 11 12 13 12 11 9 6 4 4 6 9 11 12 9 5 5 5
9 7 7 6 6 6 6 6 5 2 2 2 3 3 3 3 4 4 3 3 4 3 3 3 4 4 4 4 5 5 4 5 4 4 1 1 1 3 3 3 4 5 4 4 4 4 5 6 6 7 6 6 6 6 6 6 7 8 8 9 8 7 6 5 6 5 6 7 9 8 8 11 12 14 12 9 8 7 6 6 5 4 5 5 6
7 6 7 6 6 6 6 5 4 2 2 3 4 5 5 5 5 4 3 3 4 3 3 4 5 4 4 4 4 8 7 6 6 3 3 4 1 2 3 3 4 3 4 4 4 5 5 5 6 6 7 7 7 6 7 9 10 8 8 7 7 6 6 6 6 6 6 7 7 8 9 7 6 6 6 4 5 5 5 5 5 5 6 6 7
7 5 6 7 6 7 6 5 3 3 4 5 5 5 5 6 5 5 5 5 4 4 4 4 4 4 5 4 4 3 4 5 5 6 3 3 1 4 4 3 2 2 2 2 2 3 2 3 3 5 6 7 7 8 8 10 10 8 6 6 6 6 6 5 5 7 7 5 5 6 6 6 5 6 6 6 6 6 6 5 6 6 6 6 6
5 5 6 6 7 7 6 5 3 3 4 5 5 5 4 5 5 5 5 6 5 4 5 6 5 5 5 5 5 5 5 5 5 5 5 5 3 5 4 2 3 4 4 1 1 1 2 1 3 3 2 4 6 7 12 13 11 11 10 6 4 5 6 7 9 11 5 4 6 5 6 6 6 6 6 6 7 7 7 7 6 6 6 6 6
5 7 7 8 7 7 6 5 3 4 5 4 4 4 4 4 4 4 5 5 5 5 5 6 6 5 6 5 5 5 5 5 5 3 2 2 3 7 8 3 3 4 1 2 4 4 3 3 0 4 4 4 6 8 9 8 9 8 8 9 9 8 6 7 7 6 3 5 6 6 6 6 6 6 6 7 7 7 7 8 7 7 6 6 6
Wind_Direction
175 170 170 171 171 171 168 167 169 167 164 167 167 163 165 171 166 172 158 146 146 142 148 152 146 133 127 185 183 173 171 171 177 183 179 173 174 175 172 159 148 143 141 142 138 132 122 119 109 91 101 94 103 114 84 38 191 170 20 4 17 13 330 353 40 78 52 345 359 359 323 311 296 188 208 234 235 232 228 231 244 253 249 245 247
162 164 169 168 169 168 164 164 164 162 174 170 173 168 166 165 171 159 152 155 157 159 161 171 171 175 162 182 177 156 168 166 182 204 183 171 165 164 168 153 148 150 137 130 126 136 137 127 126 117 92 93 103 140 147 36 14 29 35 19 25 45 311 327 336 45 13 91 21 328 336 315 281 261 265 247 227 230 223 225 236 240 249 247 247
165 166 166 169 168 166 166 167 174 174 172 176 174 162 163 165 167 147 160 160 164 163 157 173 187 177 153 163 163 140 138 146 141 146 176 161 158 161 161 154 148 148 142 137 135 144 146 143 151 126 99 109 102 81 67 41 21 13 63 67 344 354 273 279 275 95 169 156 130 55 328 7 330 346 299 267 247 235 219 238 241 244 252 249 238
167 166 167 168 166 168 168 171 175 170 170 171 171 170 165 168 163 149 160 162 163 171 170 173 174 177 86 125 119 100 168 144 122 119 162 140 167 159 161 157 155 155 150 146 139 146 152 157 153 145 132 127 138 139 98 51 357 7 54 93 104 344 355 312 189 173 126 108 330 43 269 110 341 314 317 291 264 242 223 237 230 248 263 273 229
164 167 167 165 166 171 174 175 168 169 175 179 177 174 172 173 168 156 158 168 165 170 167 160 144 104 73 76 80 55 61 91 105 175 182 180 156 169 183 164 164 162 157 149 146 151 151 153 162 167 149 144 141 133 147 203 232 159 105 119 140 210 314 321 317 100 123 145 140 24 353 10 238 256 335 289 352 313 261 247 241 246 261 261 242
163 168 170 168 169 171 172 170 170 172 179 186 182 174 167 166 163 157 153 162 165 168 159 154 164 151 132 139 139 130 131 146 180 189 184 182 186 175 162 176 171 168 162 156 146 146 162 169 170 170 180 165 155 159 168 27 294 305 181 179 194 198 231 328 303 321 179 204 171 196 166 207 274 279 56 305 323 255 302 285 256 262 270 274 266
164 166 165 166 170 167 173 176 173 174 184 181 180 175 166 165 165 164 163 165 167 165 155 147 153 159 165 174 170 170 171 205 197 189 180 178 151 167 173 179 178 170 175 164 163 164 160 170 181 189 193 182 197 140 201 229 242 222 192 152 213 203 131 286 255 266 348 353 232 275 246 232 182 66 286 309 351 319 338 327 303 260 241 258 265
163 168 171 170 171 171 176 180 176 179 174 172 178 173 168 170 166 169 169 169 175 157 154 155 156 164 167 177 175 174 183 188 186 187 168 154 156 169 164 181 183 182 173 173 171 172 164 183 188 195 201 229 227 206 221 233 223 261 238 219 186 180 163 186 246 294 100 277 309 355 353 10 36 290 156 243 223 342 327 322 302 328 279 239 248
162 169 172 173 174 177 174 178 180 168 166 173 180 176 172 170 168 164 170 174 184 164 153 158 155 165 169 170 177 193 186 187 171 160 158 160 157 161 169 180 186 195 186 178 177 173 179 184 185 194 208 233 234 237 241 222 219 240 275 273 200 126 164 188 141 265 123 352 356 357 6 15 347 55 101 130 91 27 289 309 301 316 311 269 245
168 171 173 174 176 177 179 171 166 174 175 174 171 164 166 165 170 167 177 182 181 171 156 161 162 157 165 174 174 179 166 142 155 159 161 161 167 175 178 181 190 198 203 190 182 184 184 180 181 193 206 215 226 233 248 253 247 226 225 211 175 158 210 176 256 278 182 156 96 112 26 337 27 6 7 6 5 105 182 303 282 306 319 293 318
166 174 174 176 177 173 167 173 175 166 166 166 165 169 167 170 173 175 183 183 185 176 162 172 169 168 171 177 176 170 164 154 156 170 155 157 177 184 183 194 188 200 195 202 197 192 190 186 184 197 201 208 223 215 225 231 238 230 233 164 170 194 181 185 1 79 129 89 91 88 98 97 98 51 302 325 242 289 358 313 313 226 227 304 299
186 167 178 174 170 172 170 171 170 168 162 166 169 166 170 174 172 176 180 186 191 178 168 175 171 185 179 177 178 175 163 166 175 180 183 183 186 189 188 177 203 201 199 197 210 202 193 197 197 195 207 207 218 208 221 222 239 252 269 177 207 215 161 156 335 4 16 31 50 93 49 188 187 191 235 239 209 226 182 255 275 304 327 230 282
58 173 168 172 172 171 175 175 167 167 173 173 172 172 172 173 175 176 186 186 190 181 178 174 177 188 182 184 185 173 173 173 179 181 185 188 188 186 176 190 189 195 204 200 211 200 193 195 205 205 215 214 217 209 233 229 226 242 243 217 219 251 216 173 334 318 72 44 324 354 140 243 278 217 210 256 242 189 181 295 287 110 288 308 305
120 145 174 178 178 178 176 172 176 178 177 174 173 172 173 176 179 182 187 183 183 184 181 176 186 189 184 185 180 171 181 180 182 182 189 192 185 190 189 187 190 198 193 204 202 195 194 201 204 211 210 213 210 206 212 224 207 203 213 214 220 228 190 207 230 236 108 152 149 21 347 323 298 257 234 91 106 155 358 353 313 331 76 292 302
133 126 156 181 187 181 176 178 178 179 178 175 176 177 173 176 180 185 181 184 181 186 182 183 186 189 192 191 175 172 182 186 191 191 187 189 192 189 195 192 194 201 194 202 192 190 195 197 207 208 211 212 213 214 207 205 208 194 202 215 225 210 214 208 262 322 336 334 349 45 315 310 292 303 312 11 157 187 195 169 115 9 344 6 351
353 104 111 118 174 183 184 183 181 179 179 179 179 176 178 181 182 183 183 182 184 183 186 187 189 185 190 193 190 179 185 192 197 199 199 195 190 189 193 196 205 198 205 189 199 188 191 197 203 210 210 209 209 211 208 202 195 188 204 199 226 208 220 241 250 248 276 272 275 290 28 321 291 291 322 324 252 205 159 145 115 109 72 344 339
180 141 144 135 111 119 167 181 188 186 182 183 182 182 184 181 179 183 183 179 183 186 184 184 184 185 198 196 190 192 188 192 197 200 201 200 194 194 192 201 201 197 200 198 198 203 196 196 204 210 207 208 206 210 206 202 181 176 185 191 217 234 194 227 251 252 258 256 264 269 260 272 291 290 317 316 345 161 165 183 194 136 155 84 347
162 151 173 144 131 136 148 170 182 185 187 189 189 189 186 181 180 180 178 183 188 184 183 184 184 190 193 198 202 202 200 201 198 195 196 194 203 202 197 196 207 204 200 201 194 205 210 209 207 215 210 202 206 203 198 199 182 183 189 198 212 173 179 236 245 226 260 244 254 306 23 323 301 331 300 290 330 103 149 194 279 144 134 161 173
153 176 180 162 140 140 144 148 145 160 185 193 193 186 180 187 189 183 185 189 186 185 185 186 185 189 191 196 195 201 204 207 208 196 183 194 202 201 202 208 205 205 205 211 199 207 211 220 214 220 213 210 208 206 197 196 188 197 195 206 207 179 192 245 257 226 258 246 281 308 326 320 332 333 316 320 351 17 123 154 100 137 188 136 154
164 186 173 159 145 144 133 130 131 144 156 174 181 180 183 176 175 191 193 180 180 195 187 187 191 190 193 190 193 190 195 199 204 194 192 199 203 197 206 209 213 200 211 212 210 211 210 214 218 221 219 215 208 211 197 197 192 202 204 214 221 183 202 229 262 249 247 243 260 300 298 289 303 311 289 304 319 341 93 81 131 119 163 183 137
138 159 164 164 163 149 131 120 132 116 93 96 159 177 177 166 174 175 171 175 184 188 192 203 194 199 193 196 195 188 193 191 195 201 200 202 203 201 203 211 200 214 207 212 218 223 218 213 213 214 216 214 210 210 203 194 195 205 211 211 226 206 214 236 235 267 259 240 239 247 271 274 252 260 249 256 282 272 48 100 140 137 143 163 111
131 130 129 136 135 118 110 112 114 107 104 90 63 79 133 149 161 181 176 182 182 185 191 192 196 199 201 202 203 196 191 184 194 199 204 206 205 205 204 201 211 220 203 213 214 221 221 219 214 213 214 215 213 210 204 192 201 209 216 202 214 215 221 239 228 245 255 243 229 236 261 270 258 248 263 250 227 242 274 312 293 191 225 227 186
130 123 120 113 100 97 109 110 110 96 97 96 92 103 108 118 125 97 231 216 195 200 199 192 192 197 208 207 204 205 197 193 196 198 206 205 207 207 197 202 216 224 217 215 214 211 212 214 216 213 211 213 212 213 208 200 207 209 212 214 210 207 214 226 229 237 242 240 243 237 250 253 252 248 257 253 243 250 236 224 262 245 251 254 197
82 109 103 90 89 90 89 93 93 98 112 118 128 148 147 147 160 168 165 142 116 96 120 133 130 147 178 200 217 218 215 217 213 212 208 209 204 203 199 208 215 220 222 226 221 214 207 208 214 216 213 214 214 216 213 209 211 210 215 219 216 212 215 220 225 236 240 236 238 246 249 242 240 237 256 259 254 247 246 246 249 267 235 252 236
92 86 102 104 96 95 99 108 126 136 124 101 102 92 58 49 41 57 68 88 107 117 115 115 144 176 179 165 169 193 214 218 223 220 221 216 212 205 200 210 212 221 225 223 227 218 215 212 215 216 217 219 219 216 217 219 219 216 218 222 221 219 220 221 222 226 228 225 232 233 246 241 224 237 255 249 250 246 245 228 238 250 242 246 252
93 90 86 83 92 115 122 125 117 97 121 117 105 98 103 121 147 133 110 156 162 147 137 154 179 185 189 186 180 189 202 212 216 218 221 220 215 213 210 212 211 222 225 219 218 217 211 216 220 220 216 217 216 214 216 219 217 217 220 225 226 223 225 226 227 226 226 222 226 232 239 238 241 238 251 251 246 246 247 239 241 245 240 241 248
85 80 85 91 85 89 87 94 93 73 0 47 73 83 106 135 140 127 151 202 215 120 84 157 206 192 183 207 218 211 195 182 193 227 232 220 219 217 215 218 213 221 222 222 222 220 221 218 220 216 219 217 215 214 215 218 220 219 220 223 227 226 227 230 232 231 227 224 226 230 230 226 230 233 241 246 246 251 246 251 246 248 245 230 247
95 84 80 82 86 87 96 107 123 115 95 67 74 98 120 121 121 134 159 189 194 155 152 175 218 211 197 206 232 238 230 214 129 23 335 264 234 219 220 220 215 221 223 224 222 220 223 219 221 218 221 217 216 219 220 219 220 220 222 229 229 229 230 231 233 233 230 228 228 229 229 226 223 226 226 235 226 241 243 255 253 243 247 236 247
88 86 82 81 81 85 92 101 100 89 87 88 86 88 90 91 89 105 103 56 7 78 140 195 227 246 253 233 224 239 251 266 223 252 292 305 307 258 225 217 220 220 224 225 224 223 224 223 224 221 222 217 216 221 219 216 217 221 218 227 229 231 231 233 235 234 231 230 233 232 233 232 228 230 225 225 224 219 224 239 255 233 243 237 250
87 87 79 75 78 76 80 84 77 74 73 78 82 80 79 74 68 53 43 16 327 145 154 162 184 283 331 294 246 246 255 263 248 254 257 296 313 334 318 267 213 218 221 221 220 221 221 222 224 226 223 217 220 222 224 221 216 215 214 221 224 228 228 230 232 236 237 229 230 229 233 232 231 233 233 233 234 234 231 225 238 234 235 237 241
87 79 74 79 74 77 74 74 75 70 67 67 66 74 76 73 63 41 28 26 38 55 58 66 84 128 219 216 219 228 46 11 329 318 322 306 280 273 302 311 293 241 221 217 216 214 216 218 219 220 218 216 221 225 225 219 219 222 219 217 220 228 226 229 231 231 239 237 234 231 234 241 239 237 237 234 235 237 239 240 243 242 230 218 235
102 91 82 77 74 77 75 73 73 72 65 60 61 62 63 60 62 60 33 29 37 48 50 49 30 47 37 60 86 119 111 82 53 351 299 347 322 325 240 255 294 292 260 244 208 211 215 218 219 220 220 219 220 225 224 222 220 222 221 222 221 225 226 226 232 234 239 242 242 239 236 236 235 235 237 243 241 240 240 243 245 247 249 243 233
105 98 91 78 75 75 77 79 78 72 71 63 63 64 60 57 63 68 66 46 52 43 44 41 42 32 25 37 49 60 63 62 66 49 52 88 55 39 358 291 259 274 295 280 274 272 249 239 225 224 228 224 226 226 222 221 222 222 222 222 233 228 228 230 229 232 237 241 242 242 247 238 242 241 239 240 242 252 251 247 249 253 257 252 247
96 97 94 87 73 69 69 73 77 74 70 73 65 70 72 73 72 59 60 58 59 50 51 50 50 29 34 40 40 45 54 49 46 65 67 52 36 29 349 275 271 291 302 302 277 270 279 267 255 244 245 254 254 255 230 224 223 223 224 213 228 232 233 235 234 233 234 237 237 237 242 249 243 239 237 237 238 243 250 256 257 253 251 256 252
108 97 84 83 89 88 84 72 66 65 63 70 66 64 73 65 64 67 56 55 50 50 45 41 39 28 24 23 32 35 37 33 33 41 55 63 62 92 314 303 295 294 309 310 302 293 279 271 285 284 287 277 253 261 259 244 241 239 237 219 232 234 239 240 236 233 233 235 238 236 238 247 255 246 238 230 234 240 242 249 254 254 249 249 247
111 103 101 96 90 94 90 82 67 65 56 56 59 65 76 68 63 64 61 58 56 51 46 40 37 28 19 18 22 27 31 33 25 23 27 40 307 342 301 291 306 320 320 307 284 282 282 300 286 288 298 303 307 321 305 275 254 245 241 230 232 237 243 248 247 241 236 234 234 233 235 244 250 254 253 243 237 238 236 244 252 256 260 257 253
109 103 97 91 93 91 92 81 64 54 50 36 20 45 60 52 46 41 46 43 48 52 46 42 43 35 25 14 17 22 22 25 14 18 17 339 309 264 234 263 294 303 294 275 274 274 292 302 308 310 280 282 293 289 287 281 272 270 236 221 226 232 241 246 251 252 248 245 242 235 234 243 252 255 259 257 253 244 251 250 252 258 260 264 264
107 103 95 84 81 80 71 79 74 56 37 28 38 52 53 48 42 37 40 34 29 24 20 30 32 26 25 19 18 21 17 11 10 9 352 332 315 292 278 245 266 276 267 268 275 298 327 323 317 315 287 283 280 267 261 265 264 256 222 227 219 225 242 247 259 264 262 258 252 249 244 242 250 258 263 266 264 248 243 248 253 259 265 266 266
103 105 101 92 81 80 78 69 64 55 29 39 53 60 57 49 40 37 42 38 27 16 7 358 356 355 12 18 21 24 19 12 8 356 346 337 333 323 319 278 266 269 286 301 341 3 4 8 353 344 340 357 345 357 3 331 315 323 315 307 296 242 262 259 259 265 264 261 263 262 257 253 252 256 256 257 258 248 245 248 250 254 262 264 262
99 87 93 90 82 74 62 59 59 49 41 47 50 55 54 48 34 38 38 27 15 1 347 346 353 352 359 6 14 26 24 18 1 351 349 342 331 333 324 277 266 296 343 4 17 26 31 31 28 27 34 21 12 13 24 24 11 348 329 295 301 315 284 289 282 275 283 278 266 273 274 261 258 264 269 269 267 259 249 259 255 251 255 262 266
105 104 97 84 77 80 78 71 62 54 55 51 55 59 50 43 39 39 27 6 350 350 0 7 13 16 6 357 352 12 25 13 359 352 342 353 357 348 339 350 9 13 28 26 26 28 32 28 26 26 39 26 8 9 7 25 26 17 5 13 316 290 282 283 287 291 282 282 291 286 287 281 268 266 272 279 279 277 267 265 262 253 246 266 310
100 104 97 92 87 82 75 61 48 56 56 57 65 67 56 48 46 35 355 328 348 2 5 11 19 14 9 1 353 339 36 21 355 6 6 7 357 2 11 13 24 29 27 22 16 17 22 21 18 19 24 35 27 17 10 17 12 19 28 47 4 344 337 321 306 287 282 276 269 269 267 309 359 8 355 341 317 298 272 234 249 251 275 292 286
102 90 92 99 93 87 83 82 62 56 53 49 58 54 47 42 38 359 314 332 355 9 10 15 21 19 7 0 351 347 348 23 2 12 19 19 5 16 17 19 21 21 21 17 10 6 10 7 12 11 11 13 21 24 22 2 13 9 34 56 46 13 341 346 324 311 309 303 305 304 326 13 328 322 316 306 302 305 300 253 255 256 253 257 260
95 104 105 95 92 85 77 62 57 50 38 35 47 39 30 28 3 325 329 353 12 5 12 18 18 11 6 359 350 344 341 5 5 27 31 35 20 18 29 25 21 26 21 16 6 3 4 6 2 358 4 5 7 4 8 0 357 6 42 60 39 27 21 345 322 293 303 302 304 309 302 305 304 298 302 304 300 291 275 278 276 269 264 258 245
114 113 110 105 111 110 99 74 57 57 55 49 46 52 33 14 335 342 343 342 350 8 7 12 5 1 1 353 344 347 344 352 338 44 47 44 31 27 30 14 24 20 18 16 6 9 14 1 1 0 354 356 357 355 353 349 358 6 14 25 18 359 351 354 315 305 284 287 291 290 287 285 286 288 282 286 291 289 286 278 275 275 277 248 239
114 111 111 116 112 106 102 93 58 54 62 71 69 66 49 329 314 350 352 346 337 354 1 356 353 351 348 347 354 344 346 352 334 12 69 58 70 47 44 22 27 24 23 17 5 11 13 9 6 1 354 346 348 345 340 346 1 357 351 348 346 339 324 327 317 277 281 282 281 281 280 278 274 265 266 277 295 285 291 294 290 281 268 253 243
123 132 122 110 108 108 102 93 86 56 74 66 63 56 42 352 358 344 349 355 349 333 331 342 340 338 338 346 351 336 349 346 343 335 350 78 71 68 35 24 23 25 17 17 18 19 15 7 1 349 347 345 346 340 337 345 357 353 346 339 342 340 353 1 343 339 336 325 308 303 294 287 278 275 269 259 255 267 270 266 261 250 247 247 249
132 132 122 117 112 107 96 93 78 43 57 59 45 33 17 12 2 0 350 6 16 351 336 323 330 334 335 333 339 342 349 339 331 324 321 341 2 59 47 33 15 20 31 12 13 8 13 8 354 344 342 347 348 346 347 351 343 346 337 335 335 341 354 353 336 332 317 306 307 302 293 285 279 272 268 258 248 240 242 249 248 242 242 242 244
133 136 125 126 114 102 105 93 69 22 39 47 46 33 22 19 12 7 8 28 14 360 5 358 344 343 334 331 332 326 326 330 324 323 293 252 283 23 35 359 333 114 89 92 26 349 10 344 341 342 347 345 346 347 341 340 335 340 343 331 340 348 335 320 328 325 308 311 328 327 329 324 321 308 304 301 298 289 280 260 257 251 241 240 240
139 121 108 105 111 118 109 98 74 49 53 60 55 42 26 21 18 16 20 30 11 9 18 6 354 347 332 326 325 324 324 326 330 323 327 329 28 80 111 42 326 62 113 183 230 355 313 288 342 309 316 330 325 315 322 338 343 349 351 350 330 304 297 300 313 310 283 306 334 330 332 325 321 322 317 311 307 303 298 291 278 263 259 258 250
143 108 107 119 130 128 121 108 94 75 72 69 61 41 35 25 23 20 30 30 21 18 12 2 356 343 333 327 319 316 315 318 315 333 338 347 340 335 347 47 166 284 286 228 227 242 265 252 169 352 332 303 293 326 350 1 10 14 6 356 353 352 349 331 325 336 354 331 336 337 328 327 325 322 323 324 319 316 308 300 294 289 275 264 257